Temp
62 62 63 63 63 64 64 64 64 64 64 64 65 64 64 65 65 67 67 74 73 71 70 72 70 69 67 64 65 62 50 47 53 54 56 60 59 60 61 58 59 64 59 59 60
62 62 62 62 62 63 63 64 63 63 63 64 64 64 64 64 67 67 75 72 71 71 73 70 66 68 60 62 61 55 47 53 60 58 57 60 60 60 56 56 57 58 56 58 59
61 61 61 62 62 62 63 63 63 63 63 63 63 63 63 62 64 69 72 72 72 71 72 72 70 68 59 60 60 57 52 59 62 62 61 60 57 62 58 55 59 60 59 56 55
61 61 61 61 61 62 62 62 62 62 63 63 63 63 62 64 57 69 71 72 71 71 70 69 66 61 57 57 63 55 61 63 63 63 60 57 61 60 59 63 65 63 62 57 56
60 60 60 60 60 61 62 62 62 62 62 62 63 62 63 59 64 69 68 70 70 71 69 67 63 61 56 58 60 56 58 62 63 62 61 60 58 57 58 62 64 65 60 58 57
60 59 59 59 60 61 61 62 62 62 62 62 63 62 60 56 70 70 69 68 70 68 67 67 65 65 60 59 56 57 58 58 60 61 60 58 54 56 58 62 62 63 61 56 58
60 59 59 59 60 60 61 61 62 61 61 62 63 64 60 63 71 69 70 67 67 68 65 67 65 62 59 57 59 58 55 56 60 59 58 57 53 53 64 58 60 60 60 59 57
60 59 59 59 59 60 60 61 61 61 61 62 63 60 59 68 66 69 69 65 67 67 66 65 66 61 59 59 58 51 48 45 56 56 56 58 50 58 61 57 58 59 56 57 58
60 59 59 59 60 60 60 61 60 61 63 64 58 57 59 68 65 69 68 65 66 65 63 70 63 57 55 49 46 45 42 44 51 58 53 52 49 57 60 56 57 55 56 58 60
60 59 59 59 60 60 60 61 61 62 63 66 68 56 62 62 64 67 66 67 62 61 60 58 54 50 47 45 41 41 41 47 47 52 50 47 50 57 57 55 57 56 54 56 61
60 60 60 60 60 61 58 54 58 56 57 58 59 59 62 61 65 61 64 63 62 57 50 53 46 45 53 52 51 49 46 44 55 57 53 54 52 56 60 54 53 58 60 62 62
60 60 60 60 60 60 55 54 49 50 48 58 61 62 66 63 59 59 65 58 55 49 51 48 43 55 54 53 51 49 47 46 54 55 51 52 52 57 54 58 60 58 60 62 64
60 59 59 59 60 58 53 51 57 54 43 54 59 61 61 62 58 58 61 57 52 48 49 50 51 56 54 51 50 51 47 49 48 52 48 45 42 48 54 56 60 62 62 63 62
59 59 59 59 56 55 52 56 56 53 38 48 55 58 58 59 53 57 61 58 51 50 49 48 56 55 49 49 53 48 52 51 49 41 41 43 38 46 50 52 54 58 60 60 53
59 59 59 60 52 52 55 56 54 50 27 51 53 59 55 54 52 51 54 52 48 49 49 49 49 46 47 53 52 51 48 46 42 39 36 39 36 42 50 48 54 60 61 62 57
58 58 59 56 52 56 57 54 52 41 28 48 50 48 48 48 48 50 50 54 51 46 48 47 49 50 50 47 50 48 43 42 39 36 32 38 40 43 43 51 52 59 60 61 58
58 57 57 62 55 58 58 55 42 33 50 47 48 47 46 44 45 45 44 41 42 37 37 43 47 49 51 44 44 43 40 29 27 24 31 43 36 49 50 52 55 58 59 61 53
57 57 55 59 59 57 53 43 32 44 47 52 50 46 45 48 47 44 41 38 42 40 39 38 42 45 49 51 44 39 43 30 22 30 40 34 31 42 54 58 57 59 62 55 51
57 55 54 56 56 54 46 35 41 44 51 51 51 44 42 47 49 43 39 39 45 46 41 39 40 44 44 45 49 40 36 46 33 17 24 42 43 51 49 52 52 54 48 51 50
54 53 52 56 56 50 41 41 44 51 53 52 44 47 40 44 45 44 41 45 47 48 56 49 41 48 43 44 42 42 44 33 32 22 18 38 33 44 51 57 59 48 50 49 48
52 48 52 55 55 45 35 39 44 51 52 49 46 45 45 42 46 45 43 49 53 50 49 45 44 45 41 38 40 36 38 39 39 33 33 33 40 47 48 48 49 49 49 50 49
49 42 51 55 42 42 40 44 47 48 52 50 48 48 45 46 44 44 43 45 54 50 43 43 39 32 40 45 43 45 43 44 37 34 33 36 39 59 53 51 51 53 52 50 52
45 46 50 50 39 40 41 43 46 45 47 47 45 47 49 44 38 45 44 51 53 50 42 42 32 29 31 42 40 40 42 45 44 37 34 29 33 56 57 56 52 50 50 52 53
42 37 43 44 45 43 42 42 42 46 45 46 46 47 43 40 44 40 42 45 47 48 47 45 34 32 31 40 44 38 40 41 43 35 36 34 36 45 51 53 56 58 61 62 64
39 36 40 34 39 41 42 42 40 41 46 47 43 43 42 38 40 38 43 44 45 46 43 41 31 33 36 39 41 39 40 41 38 40 33 36 38 43 49 51 54 57 59 59 60
34 34 38 35 39 38 40 39 38 39 41 40 39 41 40 37 38 35 40 41 40 38 40 40 33 35 32 35 35 34 38 38 38 38 39 41 40 50 53 55 54 55 57 56 58
38 40 37 33 31 32 33 37 39 37 38 39 36 34 33 37 40 38 38 37 38 39 39 37 33 32 29 35 33 28 34 36 38 42 42 35 43 51 50 52 52 54 55 55 57
MSLP
1020.56 1020.30 1020.01 1019.72 1019.42 1019.04 1018.73 1018.42 1018.11 1017.89 1017.62 1017.26 1016.91 1016.68 1016.38 1016.10 1015.94 1015.94 1015.22 1013.82 1013.90 1014.23 1014.60 1014.76 1014.93 1014.91 1014.98 1015.25 1015.13 1015.36 1015.96 1015.42 1014.17 1012.94 1012.32 1012.12 1012.30 1012.45 1012.72 1013.09 1013.41 1013.61 1014.01 1014.26 1014.82
1020.71 1020.53 1020.24 1019.99 1019.65 1019.29 1018.91 1018.58 1018.25 1017.89 1017.57 1017.24 1016.88 1016.52 1016.28 1016.03 1015.79 1015.15 1013.61 1013.36 1013.62 1013.88 1014.24 1014.55 1014.72 1014.88 1015.17 1015.10 1015.21 1015.59 1015.87 1014.62 1013.18 1012.64 1012.32 1012.23 1012.37 1012.62 1012.99 1013.11 1013.38 1013.68 1014.17 1014.66 1015.23
1020.84 1020.66 1020.41 1020.08 1019.82 1019.41 1019.01 1018.62 1018.26 1017.91 1017.46 1017.14 1016.81 1016.44 1016.12 1015.99 1015.67 1013.92 1013.57 1013.63 1013.61 1013.81 1013.97 1014.04 1014.13 1014.59 1015.01 1014.83 1014.90 1014.97 1014.84 1013.80 1012.88 1012.50 1012.35 1012.37 1012.54 1012.51 1012.86 1013.06 1012.81 1012.94 1013.68 1014.62 1015.21
1020.93 1020.70 1020.49 1020.23 1019.85 1019.48 1019.06 1018.59 1018.20 1017.82 1017.45 1017.06 1016.70 1016.39 1016.05 1015.85 1015.17 1013.45 1013.48 1013.61 1013.71 1013.83 1013.97 1013.90 1014.08 1014.41 1014.67 1014.57 1014.08 1014.45 1013.84 1013.59 1013.00 1012.52 1012.47 1012.71 1012.72 1012.54 1012.54 1011.65 1011.70 1011.88 1012.52 1013.81 1014.49
1020.80 1020.69 1020.40 1020.12 1019.81 1019.43 1018.99 1018.52 1018.04 1017.63 1017.29 1016.94 1016.69 1016.33 1016.01 1015.78 1014.17 1013.28 1013.43 1013.58 1013.72 1013.81 1013.86 1013.92 1014.16 1014.28 1014.42 1014.07 1013.94 1013.92 1013.61 1013.36 1013.00 1012.80 1012.62 1012.74 1012.83 1013.08 1011.93 1011.67 1011.72 1011.86 1012.40 1013.09 1013.70
1020.59 1020.46 1020.34 1019.97 1019.57 1019.21 1018.78 1018.31 1017.72 1017.31 1016.95 1016.74 1016.51 1016.49 1016.15 1015.26 1012.91 1013.07 1013.41 1013.68 1013.58 1013.71 1013.69 1013.72 1013.70 1013.83 1014.09 1013.89 1014.01 1013.72 1013.57 1013.28 1012.92 1012.62 1012.74 1012.98 1012.82 1013.21 1010.57 1010.72 1011.18 1011.56 1011.72 1012.12 1012.52
1020.53 1020.25 1020.00 1019.78 1019.39 1018.83 1018.25 1017.74 1017.27 1016.81 1016.48 1016.27 1016.23 1016.15 1015.65 1013.51 1012.58 1012.94 1013.27 1013.37 1013.37 1013.43 1013.56 1013.45 1013.53 1013.74 1013.89 1013.82 1013.67 1013.70 1013.92 1013.41 1012.28 1011.80 1012.63 1012.97 1013.02 1012.22 1009.95 1010.71 1010.88 1010.96 1010.97 1011.21 1011.35
1020.36 1020.12 1019.78 1019.49 1019.10 1018.58 1017.90 1017.04 1016.53 1016.12 1015.98 1015.72 1015.85 1015.84 1014.51 1012.86 1012.81 1013.01 1013.21 1013.37 1013.27 1013.37 1013.53 1013.52 1013.56 1013.98 1014.05 1013.81 1013.89 1014.20 1014.30 1013.72 1011.51 1011.85 1012.36 1012.66 1011.70 1009.98 1009.85 1010.53 1010.52 1010.32 1010.42 1010.49 1010.20
1020.16 1019.94 1019.56 1019.15 1018.66 1018.11 1017.41 1016.43 1015.84 1015.56 1015.35 1015.44 1015.80 1015.58 1014.11 1012.84 1012.92 1012.60 1012.80 1013.14 1013.38 1013.53 1013.59 1013.65 1013.84 1014.14 1014.29 1014.62 1014.98 1014.61 1014.14 1013.49 1012.13 1011.44 1012.08 1012.69 1011.58 1009.80 1009.44 1009.99 1009.86 1009.74 1009.71 1009.70 1009.32
1019.91 1019.73 1019.39 1018.92 1018.42 1017.81 1016.90 1015.57 1015.01 1015.22 1015.27 1015.25 1015.14 1015.48 1013.53 1012.59 1012.39 1012.37 1012.53 1012.90 1013.25 1013.65 1014.04 1014.15 1014.32 1014.44 1014.67 1014.79 1014.76 1013.94 1014.03 1012.98 1012.32 1011.93 1011.92 1012.07 1010.93 1009.56 1009.35 1009.65 1009.32 1009.09 1008.91 1008.70 1008.25
1019.49 1019.45 1019.21 1018.81 1018.32 1017.68 1017.02 1015.80 1015.49 1015.82 1015.25 1014.38 1014.19 1013.48 1012.78 1013.00 1012.75 1012.90 1012.83 1013.14 1013.46 1013.96 1014.27 1014.24 1014.60 1014.16 1012.85 1013.28 1012.92 1013.20 1013.05 1012.81 1011.31 1011.13 1011.50 1010.88 1010.40 1009.36 1008.73 1008.98 1008.86 1008.43 1007.75 1007.21 1006.66
1019.14 1019.16 1018.95 1018.67 1018.19 1017.56 1017.42 1017.44 1017.84 1018.06 1016.36 1014.11 1013.38 1012.95 1012.18 1012.24 1012.73 1012.98 1013.04 1013.58 1013.72 1013.75 1014.00 1014.23 1013.72 1012.69 1012.86 1013.10 1013.18 1013.07 1012.72 1012.20 1010.95 1010.41 1010.92 1010.31 1009.43 1008.59 1008.25 1007.57 1007.05 1007.07 1006.56 1005.82 1005.64
1018.88 1018.91 1018.79 1018.42 1017.99 1017.61 1017.83 1018.32 1018.11 1017.98 1017.32 1014.09 1012.07 1011.51 1011.26 1011.51 1011.58 1011.86 1012.65 1013.02 1013.33 1013.76 1013.43 1012.66 1012.01 1012.08 1012.59 1012.76 1013.11 1012.12 1012.45 1011.46 1011.09 1010.79 1010.31 1009.91 1008.46 1007.90 1006.78 1006.37 1005.88 1005.40 1004.86 1004.63 1004.70
1018.56 1018.69 1018.72 1018.28 1018.14 1018.03 1017.91 1018.13 1018.00 1018.12 1017.09 1013.48 1011.70 1010.99 1011.05 1011.25 1011.79 1011.76 1011.82 1012.36 1012.91 1012.46 1013.14 1012.34 1011.52 1011.70 1012.11 1012.29 1012.11 1010.84 1011.03 1011.10 1011.49 1011.84 1011.12 1010.31 1006.83 1006.48 1005.94 1005.63 1004.99 1004.31 1003.72 1003.23 1003.67
1018.08 1018.09 1018.49 1018.44 1018.41 1018.11 1017.86 1017.88 1017.99 1018.12 1016.11 1012.36 1011.56 1011.37 1011.42 1011.76 1011.91 1012.15 1012.21 1012.12 1012.10 1012.32 1012.58 1010.81 1010.68 1010.91 1011.31 1010.54 1011.16 1009.87 1010.77 1011.17 1011.59 1012.00 1011.55 1010.45 1009.97 1005.36 1005.10 1004.93 1004.19 1003.28 1002.73 1002.36 1002.44
1017.37 1017.67 1018.18 1018.48 1018.67 1017.34 1017.15 1017.83 1018.05 1017.86 1015.12 1012.21 1011.55 1011.56 1011.87 1012.05 1012.48 1012.80 1012.82 1012.75 1012.49 1012.48 1012.00 1010.99 1010.95 1010.63 1010.30 1010.70 1010.71 1010.83 1011.29 1011.90 1012.26 1012.61 1011.00 1010.88 1009.73 1002.72 1004.27 1003.36 1002.79 1002.11 1001.74 1001.60 1001.49
1016.88 1017.01 1017.68 1017.47 1017.87 1017.69 1017.14 1017.73 1018.19 1016.29 1013.28 1011.86 1011.44 1011.88 1012.16 1012.62 1012.78 1013.05 1013.13 1013.19 1013.21 1013.00 1011.90 1010.42 1009.66 1009.51 1009.87 1011.12 1011.58 1011.82 1012.06 1013.00 1013.19 1013.15 1009.13 1008.22 1007.69 1002.61 1003.04 1002.31 1001.69 1001.21 1000.80 1000.49 1000.99
1016.48 1016.81 1017.08 1016.97 1017.13 1017.56 1018.02 1018.59 1017.12 1013.86 1012.81 1011.26 1011.26 1011.68 1011.85 1011.89 1012.01 1012.88 1013.27 1013.59 1013.22 1012.78 1012.13 1011.24 1008.89 1009.02 1009.15 1009.34 1009.42 1010.85 1011.54 1012.38 1012.07 1011.53 1008.40 1007.71 1004.83 1002.59 1001.54 1000.88 1000.41 1000.04 999.75 1000.03 1001.12
1016.30 1016.46 1016.69 1016.38 1016.83 1017.61 1018.76 1017.28 1013.52 1012.98 1011.91 1011.24 1011.48 1011.49 1011.53 1011.19 1011.40 1011.80 1012.38 1012.01 1011.49 1011.68 1011.57 1010.32 1008.50 1008.13 1008.39 1008.70 1009.19 1010.52 1010.88 1010.00 1010.85 1010.41 1009.81 1005.56 1003.27 1001.41 1000.93 1000.90 1000.46 1000.00 1000.08 1000.76 1001.08
1016.47 1015.94 1015.76 1015.56 1016.54 1017.53 1018.04 1015.30 1013.44 1012.10 1012.02 1011.53 1011.80 1012.05 1011.52 1011.81 1011.95 1012.16 1011.46 1010.49 1010.19 1009.74 1009.19 1009.15 1008.61 1007.36 1008.39 1008.60 1009.15 1009.26 1009.54 1010.46 1010.66 1010.19 1008.68 1004.89 1003.31 1001.22 1001.05 1000.36 999.98 1000.21 1000.33 1000.69 1001.36
1016.50 1015.91 1014.84 1015.16 1016.07 1016.98 1016.39 1014.45 1012.90 1011.97 1012.19 1012.28 1011.39 1011.52 1011.12 1011.55 1012.01 1011.86 1011.68 1010.27 1010.16 1009.83 1009.77 1010.25 1009.58 1007.37 1008.71 1008.76 1008.40 1009.38 1009.44 1009.32 1009.49 1008.33 1006.71 1005.08 1002.37 1000.93 1000.18 999.98 1000.07 1000.05 1000.52 1000.97 1001.13
1016.07 1015.91 1015.05 1014.69 1015.80 1015.46 1014.59 1013.29 1012.65 1012.38 1012.22 1011.85 1011.48 1011.06 1011.37 1011.17 1010.84 1010.56 1010.30 1010.20 1009.23 1009.88 1010.29 1011.21 1011.40 1010.26 1008.46 1007.52 1008.00 1007.43 1007.36 1007.64 1008.08 1007.26 1006.52 1005.05 1002.92 999.87 1000.49 1000.37 1000.33 1000.34 999.90 999.86 1000.11
1016.19 1015.26 1014.91 1014.69 1014.04 1014.14 1013.93 1013.21 1012.51 1012.26 1012.26 1011.79 1011.84 1011.00 1011.47 1010.76 1010.66 1009.50 1009.57 1008.51 1008.82 1009.80 1010.35 1010.79 1010.91 1010.75 1009.74 1008.21 1007.57 1007.34 1007.03 1007.00 1006.66 1006.73 1006.30 1005.54 1003.20 1000.85 1000.71 1000.40 1000.20 1000.53 1000.18 999.87 999.51
1016.65 1015.27 1014.97 1014.48 1013.55 1013.55 1013.08 1012.36 1011.99 1011.50 1011.51 1011.66 1011.87 1011.79 1011.47 1010.94 1010.44 1009.41 1008.66 1008.47 1008.48 1008.98 1009.30 1009.91 1010.07 1009.70 1008.59 1006.83 1006.33 1006.49 1006.45 1006.98 1006.71 1006.16 1005.02 1004.66 1002.38 1001.41 999.09 998.79 998.60 999.12 998.45 998.41 998.61
1016.98 1015.40 1014.65 1014.16 1013.58 1013.08 1012.95 1012.60 1011.73 1011.57 1011.27 1011.29 1010.78 1011.12 1011.06 1010.38 1009.90 1009.40 1009.06 1008.50 1008.37 1008.41 1009.23 1009.72 1008.97 1008.51 1007.30 1007.11 1006.74 1005.79 1005.12 1004.51 1005.04 1004.44 1004.50 1002.63 1002.48 1001.02 997.84 998.64 997.77 997.26 997.03 997.48 997.50
1017.28 1016.54 1015.44 1014.95 1014.24 1013.96 1013.23 1012.29 1012.62 1012.25 1012.31 1011.30 1011.97 1011.95 1011.14 1010.37 1010.58 1010.08 1010.00 1009.13 1007.87 1007.52 1008.12 1008.38 1006.88 1007.17 1006.44 1006.15 1005.85 1004.99 1004.16 1004.10 1003.33 1002.19 1001.52 1001.56 1000.32 998.54 998.07 997.33 996.91 995.68 996.92 997.24 997.40
1017.17 1016.90 1016.80 1015.64 1015.24 1014.92 1013.53 1013.24 1013.16 1013.71 1013.21 1012.95 1013.06 1012.92 1012.43 1011.88 1011.78 1011.57 1011.14 1010.46 1009.63 1007.88 1007.32 1007.12 1006.36 1005.87 1003.80 1004.33 1004.14 1003.21 1002.69 1001.12 1000.31 1000.49 999.75 999.56 997.57 996.80 997.00 996.89 996.37 995.78 996.64 996.65 996.53
Wind_Speed
17 17 17 17 17 17 18 17 16 14 13 13 13 11 8 7 7 2 5 7 7 12 7 4 3 3 1 2 1 3 3 4 5 2 2 3 4 2 3 2 2 5 3 2 11
17 17 17 18 17 18 17 17 17 17 15 14 14 12 10 7 2 8 6 11 13 11 5 7 4 5 1 3 1 4 3 7 4 3 3 3 5 7 2 3 4 4 1 6 12
15 16 17 18 18 18 18 18 17 16 16 16 15 14 10 5 2 6 4 7 11 7 3 3 2 5 3 3 4 5 7 4 4 3 3 2 2 5 7 7 9 12 9 11 10
12 14 15 17 18 18 19 18 18 17 17 16 14 13 11 1 5 3 7 7 8 5 2 3 2 4 4 5 7 4 8 8 7 3 0 2 5 5 8 13 8 12 10 15 15
9 11 13 15 16 18 18 19 19 18 17 16 14 11 2 1 11 6 7 6 5 6 5 5 4 4 4 4 3 5 5 6 7 7 6 1 9 8 13 10 11 9 8 17 15
6 9 12 14 15 18 19 19 19 19 18 17 14 7 2 6 2 8 7 4 4 4 5 6 6 6 5 5 4 3 4 7 7 10 6 7 6 4 10 10 14 11 11 12 18
6 7 10 15 17 18 19 21 21 18 17 17 10 4 3 14 5 8 9 4 2 3 3 4 3 4 1 4 2 3 8 8 12 10 8 6 10 15 24 3 9 12 12 11 17
7 8 9 12 15 18 20 22 22 20 16 10 5 3 8 1 3 6 5 1 1 1 1 1 4 2 3 2 5 2 2 5 7 8 4 9 17 10 13 9 16 15 11 10 15
8 9 10 13 15 17 20 24 23 19 6 1 3 3 9 1 3 6 6 5 5 3 2 2 4 5 0 4 5 3 6 8 11 8 7 7 13 12 9 10 14 11 12 12 13
9 9 11 14 16 19 23 25 10 5 1 3 4 3 4 6 4 5 3 8 3 5 3 3 2 3 1 6 10 8 7 6 9 5 4 6 19 14 10 5 11 10 10 13 17
9 10 11 14 16 19 13 7 6 3 1 8 6 5 3 1 3 1 1 4 3 2 7 6 5 11 22 17 6 5 6 8 19 10 10 18 18 20 20 10 12 17 18 18 19
9 10 10 13 16 21 5 4 3 1 9 8 13 9 7 8 4 5 6 7 7 8 5 2 11 18 3 9 9 11 14 15 15 11 11 15 21 17 12 15 16 16 19 22 17
9 10 9 12 13 6 3 2 3 3 2 9 9 8 7 11 10 9 14 5 7 6 10 18 11 17 12 9 10 19 14 18 19 10 6 9 11 13 12 12 15 17 20 21 17
9 9 7 12 2 4 1 4 3 1 3 9 5 4 2 4 5 0 8 8 6 14 9 12 12 12 7 8 13 21 10 13 11 3 14 5 17 9 8 13 11 17 19 17 11
10 8 5 0 3 2 2 2 3 3 8 6 3 2 1 6 3 1 1 1 6 5 7 11 4 8 13 24 11 19 3 5 2 5 6 6 9 5 10 9 11 16 18 19 12
10 10 8 2 2 6 3 4 2 5 10 6 3 4 4 0 1 2 3 3 1 2 6 11 1 4 8 2 6 3 1 0 3 3 14 8 10 6 8 12 7 14 14 14 11
11 9 9 3 3 2 3 2 3 7 6 4 4 4 1 4 3 5 5 6 6 1 6 2 14 7 6 3 2 2 5 5 5 1 16 12 13 20 7 7 12 13 14 16 8
9 7 7 6 4 5 3 4 9 7 9 2 3 3 7 8 6 5 3 3 7 1 3 3 15 14 9 19 12 10 12 9 8 11 22 3 11 8 13 13 11 14 15 6 9
6 2 3 5 5 5 2 4 9 7 7 4 9 6 6 6 8 8 9 8 10 18 12 7 12 1 2 3 9 4 7 9 1 2 2 11 14 9 4 11 11 16 3 8 9
2 3 4 6 12 6 3 16 7 7 4 3 7 8 11 5 2 2 7 5 7 16 18 7 12 9 4 4 1 7 2 2 2 3 8 18 5 16 14 22 19 6 10 8 6
3 3 2 15 7 3 7 9 4 5 5 7 15 15 11 11 10 8 7 15 4 4 3 7 7 19 5 6 10 2 5 5 2 6 15 18 16 7 5 3 3 7 8 9 8
2 4 5 11 5 4 11 6 6 12 5 7 4 8 13 13 15 18 18 20 9 5 3 4 4 6 10 6 4 4 9 11 10 12 5 8 15 21 12 9 5 9 6 6 7
3 3 5 3 8 10 4 7 5 12 12 5 7 9 12 15 11 15 13 12 15 13 4 6 4 5 10 14 4 8 7 8 7 2 13 16 17 22 23 23 10 7 10 9 9
3 3 2 3 4 14 16 18 18 10 17 12 15 9 10 14 17 14 19 11 12 16 15 12 10 12 17 18 10 10 11 11 15 14 24 21 29 29 34 28 25 21 25 24 23
2 5 2 4 10 12 11 10 19 20 11 9 8 26 25 25 25 25 25 26 18 9 9 12 12 20 26 30 29 30 29 28 26 24 21 26 22 28 33 21 26 24 25 23 19
3 2 4 5 6 3 8 14 18 19 16 24 19 17 17 19 22 25 23 19 22 5 17 10 16 17 24 26 30 33 32 29 31 32 29 33 33 35 35 33 32 32 23 20 19
3 1 1 5 2 2 8 10 9 3 5 3 10 10 12 16 12 20 21 19 21 18 17 12 8 14 27 22 25 25 36 36 32 26 24 30 36 36 31 28 30 31 22 21 22
Wind_Direction
21 17 12 7 4 3 359 358 358 358 356 351 349 343 334 322 305 195 236 215 164 158 161 149 206 227 326 260 215 58 51 259 261 268 217 188 155 317 146 156 205 210 185 236 134
19 13 10 4 359 355 353 351 348 347 346 345 343 343 336 326 216 240 254 134 142 154 142 167 191 188 273 234 195 120 155 236 230 285 282 200 179 181 174 233 236 223 28 120 140
16 10 4 1 356 351 348 344 340 338 338 338 336 334 332 323 308 246 141 151 151 157 161 193 193 164 201 168 209 202 212 220 281 308 22 285 249 198 181 235 210 211 192 173 165
9 8 2 356 351 346 343 338 333 330 328 328 329 328 325 245 273 177 161 161 163 166 195 177 202 159 221 223 209 226 245 250 276 250 220 259 298 266 206 233 211 223 196 176 182
359 359 357 351 346 341 337 333 327 322 318 319 321 322 324 255 248 160 158 172 156 155 185 183 176 192 227 244 272 223 259 270 265 262 227 214 253 246 263 264 252 249 165 186 199
350 353 346 343 340 335 330 325 320 316 313 312 314 306 192 237 144 150 158 158 191 178 204 181 198 187 251 243 205 240 252 264 263 252 232 195 257 156 260 228 246 239 234 199 201
342 344 335 333 332 328 322 316 311 305 303 305 297 239 227 237 163 158 155 202 188 177 208 220 155 164 269 286 300 281 314 311 257 242 222 123 284 225 248 255 250 245 235 217 217
306 322 322 320 319 314 312 307 305 303 299 291 244 221 241 84 129 139 149 110 152 168 144 85 101 194 207 276 334 236 192 287 273 130 202 131 261 246 249 194 235 239 239 231 228
297 304 307 304 306 307 307 301 300 294 262 212 152 184 261 112 185 197 155 168 143 100 70 112 122 193 176 122 343 266 237 215 298 189 140 172 254 269 262 199 241 233 236 238 247
287 294 300 301 307 311 313 303 288 342 221 186 262 17 262 228 178 163 152 146 153 133 101 157 156 183 215 123 225 212 224 242 237 201 162 198 247 260 265 262 240 248 239 239 243
277 286 297 305 314 317 337 348 12 13 295 196 191 223 146 3 11 194 193 116 114 140 190 211 145 208 224 202 223 236 255 238 268 258 203 239 240 250 254 251 240 253 257 253 244
272 274 290 307 319 319 324 40 50 235 307 268 254 236 207 169 232 222 133 165 169 209 170 255 217 228 217 207 226 248 259 263 277 269 196 251 251 253 239 247 242 229 249 252 251
267 271 287 302 320 336 352 53 313 10 239 280 221 209 226 165 224 208 154 181 194 199 206 220 221 218 223 239 261 247 247 258 254 293 237 284 265 251 245 247 251 254 248 257 249
259 268 289 305 54 327 18 328 342 33 306 265 229 217 76 135 270 337 190 173 217 221 204 246 232 219 193 210 207 262 224 256 270 282 272 134 290 220 239 236 238 245 253 249 234
243 245 240 74 275 344 250 351 327 66 301 260 196 14 37 167 117 13 9 40 215 201 144 233 212 206 225 232 195 263 208 245 227 240 315 175 283 200 191 235 243 243 250 257 237
246 220 170 160 256 229 106 356 41 36 256 282 123 173 133 238 37 40 69 26 162 301 248 247 315 229 208 157 189 130 122 13 28 60 263 179 211 148 191 217 230 244 250 246 239
242 226 166 180 241 82 81 36 323 206 295 231 235 152 303 197 225 187 165 169 185 212 241 263 220 206 148 191 315 152 83 307 318 359 257 182 221 253 285 230 214 224 237 239 167
291 235 210 183 161 101 53 56 224 193 225 350 41 131 187 166 232 185 176 259 259 271 312 257 287 154 188 203 189 195 181 174 213 260 277 117 250 251 226 236 225 224 224 192 174
331 172 167 213 152 100 124 182 220 186 227 7 347 296 235 242 214 153 202 203 210 186 197 206 261 9 170 105 146 176 178 214 358 94 338 258 273 293 294 277 274 247 217 199 201
277 200 190 167 140 117 194 237 227 197 354 349 260 200 258 286 262 242 189 198 230 189 210 240 270 201 155 127 360 172 175 90 252 207 242 270 256 269 284 280 279 243 216 207 199
247 256 188 138 127 157 225 234 259 216 227 238 251 242 245 272 271 279 269 314 330 5 252 352 282 272 107 196 178 131 254 231 262 189 246 262 272 220 195 236 305 244 220 218 214
231 236 156 150 165 202 236 213 211 250 245 263 267 243 256 261 263 251 239 220 169 134 278 152 306 291 256 259 240 197 212 208 236 257 230 266 265 269 313 325 330 304 265 213 203
243 217 210 249 220 222 224 257 242 258 235 222 247 230 228 245 261 242 246 253 259 267 195 149 208 249 295 290 218 206 208 219 244 216 244 263 263 277 281 284 287 274 274 281 277
292 253 175 227 238 242 248 249 250 231 253 240 255 252 254 253 251 258 253 244 220 239 188 157 197 210 238 239 272 271 268 260 251 251 255 244 259 265 263 256 266 263 254 263 272
248 254 234 221 236 233 242 267 261 264 233 231 226 231 243 258 247 246 250 260 258 227 181 188 232 218 229 242 252 250 254 246 242 239 238 253 247 256 262 274 263 264 265 266 270
289 314 0 317 317 312 237 242 262 273 276 269 260 286 298 270 272 272 284 254 242 202 213 201 234 226 238 230 235 244 248 250 249 248 252 251 255 249 261 264 270 269 278 279 274
281 62 331 268 293 285 258 273 284 324 244 2 338 315 296 291 305 304 288 277 281 290 258 220 219 230 247 229 235 239 232 236 241 244 243 243 238 244 260 258 261 272 275 273 274